USA 157 (MILSTAR-2 2)

Last updated on June 27, 2019, 3:44 a.m. UTC

1 26715U 01009A   19177.68260872 -.00000361  00000-0  00000+0 0  9995
2 26715   9.0034  32.2623 0001659  79.3739 159.6402  1.00270823  6091
UTC
Height (km)
Latitude
Longitude
Inclination
Orbital Period
UTC large
Height (km)
Speed (km/s)
/
Latitude / Longitude
Inclination (degrees)
Orbital Period (minutes)
Azimuth
Elevation
Range (km)
Doppler Factor
iOS Compass Heading
iOS Angle

Next 30 passes for location: Hong Kong

Rise time Rise Azimuth (degrees) Set time Set Azimuth (degrees) Duration Max altitude (degrees)

No matching passes for this satellites